Regional Weather Roundup
Issued by NWS

Home | Current Version | Previous Version | Text Only | Print | Product List | Glossary On
Versions: 1 2 3 4 5 6 7 8 9 10 11 12 13 14 15 16 17 18 19 20 21 22 23 24 25 26 27 28 29 30 31 32 33 34 35 36 37 38 39 40 41 42 43 44 45 46 47 48 49 50
000
ASUS42 KFFC 260303
RWRGA
WEATHER ROUNDUP FOR GEORGIA
NATIONAL WEATHER SERVICE PEACHTREE CITY GA
1000 PM EST SUN JAN 25 2015

NOTE: "FAIR" INDICATES FEW OR NO CLOUDS BELOW 12,000 FEET WITH NO
SIGNIFICANT WEATHER AND/OR OBSTRUCTIONS TO VISIBILITY.

* = USE WITH CAUTION. THE STATIONS MARKED WITH AN ASTERISK MAY NOT
REPORT WEATHER SUCH AS PRECIPITATION, FOG, OR THUNDER AND ARE NOT
QUALITY CONTROLLED BY NWS.

THE REMARK "TC" DENOTES TEMPERATURE READING IN DEGREES CELSIUS.

GAZ001>058-260400-
NORTH GEORGIA

CITY           SKY/WX    TMP DP  RH WIND       PRES   REMARKS
ATLANTA        CLOUDY    51  33  50 SW6       29.75S
ATHENS         CLOUDY    50  31  48 S3        29.76F
CHAMBLEE       MOCLDY    50  33  52 CALM      29.74F
PEACHTREE CITY LGT RAIN  44  36  73 W5        29.77R
ROME           CLOUDY    46  43  89 S8        29.73F
WEST ATLANTA   LGT RAIN  51  35  54 VRB5      29.76R
GAINESVILLE    LGT RAIN  48  39  71 NW3       29.76F
CARTERSVILLE   LGT RAIN  46  41  82 S7        29.76S


CITY           SKY/WX    TMP DP  RH WIND       PRES   REMARKS
DALTON*        CLOUDY    48  41  76 CALM      29.74S
MARIETTA       LGT RAIN  50  39  66 W25G33    29.77R
KENNESAW*      CLOUDY   N/A N/A N/A NW17G25   29.80R
$$

GAZ059>098-102>109-260400-
CENTRAL GEORGIA

CITY           SKY/WX    TMP DP  RH WIND       PRES   REMARKS
AUGUSTA-BUSH   FAIR      44  31  60 S6        29.82F
AUGUSTA-DANIEL FAIR      50  32  50 S6        29.82F
COLUMBUS       CLEAR     49  36  61 SW5       29.78S
MACON          CLEAR     46  38  73 S5        29.79F
ROBINS AFB     CLEAR     45  37  74 SE3       29.77F


CITY           SKY/WX    TMP DP  RH WIND       PRES   REMARKS
LAGRANGE*      CLOUDY    55  40  56 NW17G24   29.79R
SYLVANIA*      CLEAR     42  37  81 CALM      29.85F
MILLEDGEVILLE* PTCLDY    45  37  76 CALM      29.78F
$$

GAZ099>101-110>166-260400-
SOUTH GEORGIA

CITY           SKY/WX    TMP DP  RH WIND       PRES   REMARKS
SAVANNAH       CLEAR     45  39  79 S7        29.88R
VALDOSTA       PTCLDY    51  46  83 S8        29.88F
ALMA           PTCLDY    50  42  74 S9        29.86F
ST SIMONS      MOCLDY    53  40  61 SW12      29.91R
FT STEWART     CLEAR     47  35  63 S5        29.86S
ALBANY         PTCLDY    53  45  74 SW7       29.86F
HUNTER AFB     CLEAR     50  41  70 S7        29.86S
MOODY AFB      PTCLDY    51  45  80 S9        29.86F
BRUNSWICK      MOCLDY    54  39  58 SW9       29.91S


CITY           SKY/WX    TMP DP  RH WIND       PRES   REMARKS
BAINBRIDGE*    CLEAR     54  48  82 S6        29.86F
MOULTRIE*      PTCLDY    50  46  87 S7        29.86F
VIDALIA*       CLEAR     50  37  62 SW8       29.84F
WAYCROSS*      CLEAR     53  47  79 SW8       29.88F
DOUGLAS*       PTCLDY    52  43  71 SW8       29.87F
$$


USA.gov is the U.S. government's official web portal to all federal, state and local government web resources and services.